Tracking 35274 objects as of 11-Sep-2026
HD Live streaming from Space Station
objects crossing your sky now

ELECTRON R/B


ELECTRON R/B is no longer on orbit


NORAD ID: 69179
Int'l Code: 2026-112C
Launch date: May 22, 2026
Source: United States (US)
Launch site: Rocket Lab Launch Complex (RLLC)
Decay date: 2026-06-07

Note: This is a ROCKET BODY
Your satellite tracking list
Your tracking list is empty




NASA's NSSDC Master Catalog

Two Line Element Set (TLE):
1 69179U 26112C   26158.51111025  .16105530  11108-4  41966-3 0  9997
2 69179  44.8834 231.9745 0039810 356.6677   3.3977 16.40545372  2555
Source of the keplerian elements: AFSPC